Location: *
(45.9500°N, 9.0833°E)
Time: 22:33:27
(UTC+00:00)

Vanguard 2 Rocket - Pass Details

Date: 17 June 2021
Orbit: 555 x 3325 km, 32.9° (Epoch: 02 August)

Event Time Altitude Azimuth Distance (km) Brightness Sun altitude
Rises 21:52:35 0° 259° (W) 7,032 11.6 -17.6°
Reaches altitude 10° 21:58:00 10° 254° (WSW) 5,727 11.0 -17.9°
Maximum altitude 22:12:42 44° 191° (S) 2,657 8.8 -18.7°
Enters shadow 22:19:40 19° 131° (SE) 3,105 9.1 -19.1°
Drops below altitude 10° 22:21:38 10° 123° (ESE) 3,540 - -19.2°
Sets 22:24:10 0° 116° (ESE) 4,215 - -19.3°
